Saint Vigeans, United Kingdom

4:42 PM GMT on February 19, 2018 (GMT +0000)
Saint Vigeans

Weather History for 03171 - February, 2014

Change the Weather History Date:

Wednesday, February 19, 2014

  Actual Average Record
Temperature  
Mean Temperature 40 °F -  
Max Temperature 44 °F 45 °F - ()
Min Temperature 37 °F 34 °F - ()
Degree Days  
Heating Degree Days 24    
Moisture  
Dew Point 40 °F    
Average Humidity 91    
Maximum Humidity 100    
Minimum Humidity 79    
Precipitation  
Precipitation 0.02 in - - ()
Sea Level Pressure  
Sea Level Pressure 29.68 in    
Wind  
Wind Speed 4 mph ()    
Max Wind Speed 13 mph    
Max Gust Speed -    
Visibility 9.6 miles    
Events Fog , Rain    
T = Trace of Precipitation, MM = Missing Value Source: Averaged Metar Reports

Daily Weather History Graph

Daily Weather History Graph

Search for Another Location

Airport or City:

Trip Planner

Search our weather history database for the weather conditions in past years. The results will help you decide how hot, cold, wet, or windy it might be!

Date:

Astronomy

Feb. 19, 2014 Rise Set
Actual Time 7:28 AM GMT 5:22 PM GMT
Civil Twilight 6:50 AM GMT 6:01 PM GMT
Nautical Twilight 6:06 AM GMT 6:45 PM GMT
Astronomical Twilight 5:23 AM GMT 7:28 PM GMT
Moon 11:02 PM GMT 8:32 AM GMT
Length of Visible Light 11h 11m
Length of Day
9h 54m
Waning Gibbous, 81% of the Moon is Illuminated
Feb 19
Waning Gibbous
Feb 22
Last Quarter
Mar 1
New
Mar 8
First Quarter
Mar 16
Full

Hourly Weather History & Observations

Time (GMT) Temp. Windchill Dew Point Humidity Pressure Visibility Wind Dir Wind Speed Gust Speed Precip Events Conditions
12:00 AM 40 °F - 39 °F 96% 29.66 in 12 mi West 5.8 mph - - Fog Light Fog
12:50 AM 39.2 °F - 37.4 °F 93% 29.65 in 6.2 mi West 2.3 mph - N/A Fog Shallow Fog
1:00 AM 39 °F - 38 °F 95% 29.67 in 12 mi West 2.3 mph - - Fog Patches of Fog
1:50 AM 39.2 °F - 39.2 °F 100% 29.65 in 6.2 mi North 1.2 mph - N/A Fog Shallow Fog
2:00 AM 39 °F - 38 °F 96% 29.67 in 12 mi North 1.2 mph - - Fog Patches of Fog
2:50 AM 39.2 °F 37.0 °F 39.2 °F 100% 29.65 in 6.2 mi WNW 3.5 mph - N/A   Mostly Cloudy
3:00 AM 39 °F - 38 °F 96% 29.67 in 12 mi WNW 3.5 mph - -   Overcast
3:50 AM 39.2 °F - 39.2 °F 100% 29.65 in 6.2 mi West 2.3 mph - N/A   Overcast
4:00 AM 40 °F - 39 °F 95% 29.68 in 12 mi West 2.3 mph - -   Overcast
4:50 AM 39.2 °F - 39.2 °F 100% 29.68 in 6.2 mi WNW 2.3 mph - N/A   Overcast
5:00 AM 39 °F - 38 °F 97% 29.70 in 9 mi WNW 2.3 mph - -   Overcast
5:50 AM 39.2 °F - 39.2 °F 100% 29.68 in 6.2 mi NNE 1.2 mph - N/A   Overcast
6:00 AM 39 °F - 38 °F 97% 29.71 in 9 mi NNE 1.2 mph - -   Overcast
6:50 AM 39.2 °F - 39.2 °F 100% 29.71 in 6.2 mi NE 1.2 mph - N/A   Mostly Cloudy
7:00 AM 39 °F - 39 °F 99% 29.72 in 10 mi NE 1.2 mph - -   Mostly Cloudy
7:50 AM 39.2 °F - 39.2 °F 100% 29.71 in 6.2 mi NW 1.2 mph - N/A Fog Shallow Fog
8:00 AM 39 °F - 39 °F 98% 29.74 in 7 mi NW 1.2 mph - - Fog Patches of Fog
8:50 AM 39.2 °F - 39.2 °F 100% 29.74 in 6.2 mi Calm Calm - N/A Fog Shallow Fog
9:00 AM 40 °F - 39 °F 95% 29.75 in 9 mi Calm Calm - - Fog Patches of Fog
9:50 AM 41.0 °F - 39.2 °F 93% 29.74 in 6.2 mi ENE 2.3 mph - N/A   Mostly Cloudy
10:00 AM 41 °F - 39 °F 92% 29.76 in 19 mi ENE 2.3 mph - -   Mostly Cloudy
10:50 AM 41.0 °F - 39.2 °F 93% 29.77 in 6.2 mi East 2.3 mph - N/A   Mostly Cloudy
11:00 AM 42 °F - 39 °F 83% 29.78 in 19 mi East 2.3 mph - -   Mostly Cloudy
11:50 AM 42.8 °F 40.1 °F 39.2 °F 87% 29.77 in 6.2 mi East 4.6 mph - N/A   Mostly Cloudy
12:00 PM 43 °F - 39 °F 79% 29.78 in 19 mi East 4.6 mph - -   Mostly Cloudy
12:28 PM 42.8 °F 39.3 °F 39.2 °F 87% 29.74 in 6.2 mi SE 5.8 mph - N/A   Mostly Cloudy
12:50 PM 42.8 °F 39.3 °F 39.2 °F 87% 29.77 in 6.2 mi SE 5.8 mph - N/A   Mostly Cloudy
1:00 PM 43 °F - 39 °F 79% 29.78 in 19 mi SE 5.8 mph - -   Mostly Cloudy
1:03 PM 42.8 °F 39.3 °F 39.2 °F 87% 29.74 in 6.2 mi ESE 5.8 mph - N/A   Scattered Clouds
1:50 PM 42.8 °F 38.0 °F 39.2 °F 87% 29.74 in 6.2 mi ESE 8.1 mph - N/A   Mostly Cloudy
2:00 PM 43 °F - 39 °F 81% 29.75 in 19 mi ESE 8.1 mph - -   Mostly Cloudy
2:50 PM 42.8 °F 37.5 °F 39.2 °F 87% 29.71 in 6.2 mi ESE 9.2 mph - N/A   Mostly Cloudy
3:00 PM 43 °F - 39 °F 82% 29.73 in 22 mi ESE 9.2 mph - -   Mostly Cloudy
3:50 PM 42.8 °F 37.5 °F 41.0 °F 93% 29.71 in 6.2 mi ESE 9.2 mph - N/A   Light Drizzle
4:00 PM 43 °F - 40 °F 85% 29.72 in 12 mi ESE 9.2 mph - - Rain Light Drizzle
4:08 PM 42.8 °F 37.0 °F 41.0 °F 93% 29.71 in 6.2 mi ESE 10.4 mph - N/A   Light Drizzle
4:50 PM 42.8 °F 38.0 °F 41.0 °F 93% 29.68 in 6.2 mi ESE 8.1 mph - N/A   Light Drizzle
5:00 PM 42 °F - 40 °F 92% 29.70 in 12 mi ESE 8.1 mph - - Rain Light Drizzle
5:50 PM 42.8 °F 36.6 °F 39.2 °F 87% 29.68 in 6.2 mi SSE 11.5 mph - N/A   Mostly Cloudy
6:00 PM 42 °F - 40 °F 89% 29.68 in 16 mi SSE 11.5 mph - - Rain Light Drizzle
6:50 PM 42.8 °F 36.6 °F 41.0 °F 93% 29.65 in 6.2 mi SSE 11.5 mph - N/A   Mostly Cloudy
7:00 PM 43 °F - 41 °F 88% 29.66 in 16 mi SSE 11.5 mph - -   Mostly Cloudy
7:50 PM 42.8 °F 38.0 °F 41.0 °F 93% 29.62 in 6.2 mi SSE 8.1 mph - N/A   Overcast
8:00 PM 44 °F - 41 °F 83% 29.64 in 16 mi SSE 8.1 mph - -   Overcast
8:50 PM 42.8 °F 36.2 °F 41.0 °F 93% 29.59 in 6.2 mi SSE 12.7 mph - N/A   Overcast
9:00 PM 43 °F - 41 °F 90% 29.60 in 16 mi SSE 12.7 mph - -   Overcast
9:50 PM 44.6 °F 38.4 °F 41.0 °F 87% 29.56 in 6.2 mi SE 12.7 mph - N/A   Overcast
10:00 PM 44 °F - 41 °F 85% 29.57 in 12 mi SE 12.7 mph - -   Overcast
10:50 PM 44.6 °F 38.4 °F 41.0 °F 87% 29.50 in 6.2 mi SE 12.7 mph - N/A   Overcast
11:00 PM 44 °F - 41 °F 84% 29.52 in 12 mi SE 12.7 mph - -   Overcast
11:50 PM 44.6 °F 38.4 °F 41.0 °F 87% 29.44 in 6.2 mi SSE 12.7 mph - N/A Rain Light Rain